Tracking 32571 objects as of 17-Dec-2025
HD Live streaming from Space Station
objects crossing your sky now

SES MPOWER-A F2

Track SES MPOWER-A F2 now!
10-day predictions


NORAD ID: 54756
Int'l Code: 2022-174B
Perigee: 8,064.5 km
Apogee: 8,081.5 km
Inclination: 0.1 °
Period: 287.9 minutes
Semi major axis: 14444 km
RCS: Unknown
Launch date: December 16, 2022
Source: SOCIETE EUROPEENNE DES SATELLITES (SES)
Launch site: AIR FORCE EASTERN TEST RANGE (AFETR)
Your satellite tracking list
Your tracking list is empty




NASA's NSSDC Master Catalog

Two Line Element Set (TLE):
1 54756U 22174B   25350.44051635 -.00000017  00000-0  00000-0 0  9995
2 54756   0.0635 358.8346 0005912 271.0661  90.0340  5.00116637 56297
Source of the keplerian elements: AFSPC